[[{"header":{"parameterUnit":"m.s-1","parameterCategory":2,"la1":30.2991,"la2":30.254,"lo1":-89.0895,"lo2":-89.0444,"dy":0.0017,"dx":0.0017,"nx":28,"ny":28,"refTime":"2025-05-20T09:00:00:Z","depth":"0","parameterNumber":2,"parameterNumberName":"U-component_of_CURRENTS"},"data":[0,0,0,0,0,0,0,0,0,0,0,0,0,0,0,0,0,0,0,0,0,0,0,0,0,0,0,0,0,0,0,0,0,0,0,0,0,0,0,0,0,0,0,0,0,0,0,0,0,0,0,0,0,0,0,0,0,0,0.1791,0.1792,0,0.1831,0.1832,0.1832,0.1842,0.1842,0.1842,0.1842,0.1908,0.191,0.1912,0,0,0,0,0,0,0,0,0,0,0,0,0,0.1761,0.1761,0.1791,0.1792,0.1792,0.1831,0.1832,0.1832,0.1842,0.1842,0.1842,0.1842,0.1908,0.191,0.1912,0,0,0,0,0,0,0,0,0,0,0,0,0,0.1784,0.1761,0.1791,0.1802,0.1804,0.1831,0.1832,0.1833,0.1842,0.1842,0.1842,0.1841,0.1907,0.191,0.1913,0.1937,0,0,0.1922,0.1923,0,0,0,0,0,0,0,0,0.1783,0.1785,0.18,0.1801,0.1803,0.1832,0.1846,0.1869,0.1843,0.1827,0.1842,0.1841,0.1886,0.189,0.1898,0.194,0.1943,0.1922,0.1924,0.1925,0.1926,0,0,0,0,0,0,0,0.1781,0.1784,0.1807,0.1801,0.1803,0.1818,0.1821,0.185,0.1858,0.1829,0.1829,0.1835,0.1887,0.1895,0.1899,0.1944,0.1922,0.1924,0.1926,0.1927,0.2089,0.2091,0,0,0,0,0,0,0.1776,0.1782,0.1805,0.1808,0.1793,0.1819,0.1822,0.1823,0.1857,0.1862,0.1835,0.1835,0.189,0.1896,0.1902,0.1995,0.1925,0.1928,0.1929,0.2086,0.2089,0.2092,0,0,0,0,0,0,0.1775,0.1777,0.1804,0.1797,0.1801,0.182,0.1821,0.1824,0.1833,0.1862,0.1867,0.1842,0.189,0.1898,0.1938,0.1995,0.1929,0.1932,0.2083,0.2087,0.2091,0.2142,0,0,0,0,0,0,0.1773,0.1776,0.1781,0.1796,0.1801,0.1835,0.1821,0.1825,0.1837,0.1838,0.1869,0.1875,0.189,0.1933,0.1941,0.1998,0.1934,0.208,0.2085,0.2089,0.2137,0.2147,0.2156,0,0,0,0,0,0.1772,0.1789,0.178,0.1784,0.1804,0.1836,0.1841,0.1853,0.1838,0.1856,0.1872,0.1874,0.197,0.1937,0.1945,0.2005,0.2078,0.2084,0.2089,0.2133,0.2145,0.2155,0,0,0,0,0,0,0.1798,0.1792,0.1783,0.1801,0.182,0.1838,0.1855,0.1854,0.1878,0.1875,0.1891,0.1899,0.196,0.1974,0.1937,0.2068,0.2031,0.2039,0.2062,0.2073,0.2083,0.2136,0.1937,0,0,0,0,0,0.1799,0.1797,0.1807,0.1823,0.1829,0.1837,0.185,0.1856,0.1876,0.1886,0.1904,0.1939,0.1992,0.202,0.2057,0.2119,0.2142,0.2169,0.2178,0.2186,0.2238,0.2288,0.2306,0.2111,0.211,0.211,0,0,0.1814,0.181,0.1811,0.1826,0.1835,0.1872,0.1844,0.1868,0.1915,0.1891,0.195,0.1962,0.2012,0.2086,0.2117,0.2104,0.2253,0.2193,0.2199,0.2248,0.2296,0.2315,0.2332,0.2114,0.2114,0.2113,0,0,0.1856,0.1837,0.1856,0.1871,0.1886,0.1895,0.1901,0.1918,0.1941,0.199,0.1997,0.205,0.2101,0.217,0.2208,0.2295,0.2291,0.2295,0.2396,0.2442,0.2459,0.2474,0.2515,0.2534,0.2309,0.2309,0.2309,0,0.1879,0.1896,0.1873,0.1906,0.1926,0.1908,0.1953,0.1986,0.2017,0.2045,0.202,0.2127,0.2164,0.2289,0.2336,0.2323,0.2332,0.2342,0.2454,0.2469,0.2484,0.2523,0.2542,0.2312,0.2312,0.2312,0.2311,0,0.1941,0.1957,0.1973,0.1998,0.2023,0.2052,0.2085,0.2112,0.2116,0.2145,0.2232,0.2275,0.2343,0.237,0.2393,0.2525,0.2491,0.2445,0.242,0.2506,0.2542,0.2561,0.2317,0.2316,0.2315,0.2314,0,0,0.1978,0.2008,0.2012,0.2025,0.2067,0.2084,0.2168,0.223,0.2268,0.2316,0.2382,0.2509,0.25,0.255,0.2569,0.2645,0.2759,0.2605,0.2606,0.264,0.2854,0.2748,0.2758,0.2707,0.2711,0.2714,0.2832,0,0.2031,0.2088,0.2103,0.2161,0.2185,0.2203,0.2272,0.2327,0.2363,0.2417,0.2495,0.2553,0.2578,0.2594,0.2686,0.2729,0.2815,0.2732,0.2776,0.2779,0.2667,0.278,0.2617,0.2701,0.2851,0.2854,0.2856,0,0.2082,0.2105,0.217,0.2205,0.2218,0.2259,0.2322,0.2384,0.2475,0.2501,0.2586,0.2609,0.2762,0.2728,0.2908,0.2839,0.2885,0.2918,0.2921,0.2831,0.271,0.2645,0.2731,0.2653,0.2886,0.2883,0.2881,0,0.2081,0.2143,0.2183,0.2201,0.2257,0.229,0.232,0.2402,0.2448,0.2544,0.2566,0.2711,0.276,0.2868,0.2952,0.293,0.3103,0.3058,0.3019,0.301,0.2895,0.2868,0.2912,0.3201,0.3201,0.32,0.32,0,0.2115,0.214,0.2173,0.2193,0.2227,0.2272,0.2323,0.2373,0.2453,0.2498,0.2594,0.2651,0.2795,0.2889,0.2976,0.3057,0.3118,0.309,0.3053,0.2904,0.2878,0.2821,0.2814,0.3205,0.3204,0.3203,0.3202,0,0.2106,0.2137,0.2167,0.2214,0.2225,0.2242,0.2296,0.2329,0.2406,0.2468,0.2495,0.2629,0.2744,0.2864,0.3023,0.3057,0.3047,0.3155,0.2969,0.2909,0.2789,0.2791,0.2679,0.2606,0.3162,0.3161,0.3159,0,0.2108,0.2124,0.2157,0.2156,0.2173,0.2201,0.2218,0.2295,0.2327,0.2446,0.2466,0.2592,0.2657,0.2842,0.2921,0.3039,0.2971,0.2953,0.2909,0.2809,0.2786,0.2617,0.2553,0.2779,0.2775,0.2771,0.2768,0,0.2098,0.2104,0.212,0.2118,0.2124,0.2133,0.2158,0.218,0.2265,0.2318,0.2381,0.2442,0.2588,0.2637,0.2766,0.2816,0.2762,0.2881,0.2835,0.2566,0.2334,0.2232,0.2675,0.2736,0.2739,0.2742,0.2743,0.2745,0.2071,0.2068,0.2073,0.2063,0.2063,0.2043,0.2027,0.2063,0.2095,0.2145,0.2255,0.2298,0.2398,0.2551,0.258,0.251,0.2545,0.2475,0.2513,0.237,0.2216,0.2589,0.2556,0.2558,0.256,0.2561,0.2563,0,0.2023,0.202,0.2011,0.1988,0.1947,0.197,0.1966,0.1936,0.1931,0.2014,0.2058,0.2105,0.2142,0.2212,0.2219,0.2168,0.2032,0.2126,0.1891,0.1875,0.2267,0.2166,0.1974,0.1974,0.1974,0.1975,0.1975,0.1975,0.1997,0.1971,0.1962,0.1875,0.1846,0.1769,0.1744,0.1718,0.1746,0.1749,0.1766,0.1834,0.1947,0.2001,0.1934,0.1884,0.174,0.1606,0.1672,0.1996,0.2031,0.2064,0.1966,0.1736,0.1736,0.1109,0.1105,0.1102]},{"header":{"parameterUnit":"m.s-1","parameterCategory":2,"la1":30.2991,"la2":30.254,"lo1":-89.0895,"lo2":-89.0444,"dy":0.0017,"dx":0.0017,"nx":28,"ny":28,"refTime":"2025-05-20T09:00:00:Z","depth":"0","parameterNumber":3,"parameterNumberName":"V-component_of_CURRENTS"},"data":[0,0,0,0,0,0,0,0,0,0,0,0,0,0,0,0,0,0,0,0,0,0,0,0,0,0,0,0,0,0,0,0,0,0,0,0,0,0,0,0,0,0,0,0,0,0,0,0,0,0,0,0,0,0,0,0,0,0,0.0063,0.0063,0,0.0038,0.0038,0.0038,0.0028,0.0028,0.0027,0.0027,-0.0018,-0.0019,-0.002,0,0,0,0,0,0,0,0,0,0,0,0,0,0.0135,0.0134,0.0063,0.0063,0.0062,0.0038,0.0038,0.0038,0.0028,0.0028,0.0027,0.0027,-0.0018,-0.0019,-0.002,0,0,0,0,0,0,0,0,0,0,0,0,0,0.0108,0.0133,0.0063,0.0053,0.0052,0.0038,0.0038,0.0038,0.0028,0.0028,0.0027,0.0027,-0.0017,-0.0019,-0.0021,-0.0028,0,0,-0.0026,-0.0027,0,0,0,0,0,0,0,0,0.0109,0.0105,0.0055,0.0054,0.0052,0.0034,0.0046,0.0014,0.0028,0.0039,0.0027,0.0027,-0.0004,-0.0006,-0.0008,-0.003,-0.0032,-0.0026,-0.0027,-0.0028,-0.0028,0,0,0,0,0,0,0,0.0111,0.0106,0.0055,0.0054,0.0053,0.0061,0.0057,0.0041,0.002,0.0038,0.0036,0.0031,-0.0004,-0.0006,-0.0009,-0.0033,-0.0026,-0.0027,-0.0028,-0.0029,-0.0006,-0.0005,0,0,0,0,0,0,0.0109,0.0108,0.0056,0.0054,0.0079,0.0059,0.0055,0.0042,0.002,0.0016,0.0031,0.0031,-0.0003,-0.0007,-0.0011,0.004,-0.0028,-0.0029,-0.003,-0.0008,-0.0006,-0.0004,0,0,0,0,0,0,0.011,0.0104,0.0057,0.008,0.0074,0.0058,0.0043,0.0041,0.0038,0.0015,0.0011,0.0031,-0.0004,-0.0009,-0.001,0.0035,-0.003,-0.0032,-0.001,-0.0007,-0.0005,0.0102,0,0,0,0,0,0,0.0113,0.0105,0.01,0.0079,0.0072,0.0062,0.0043,0.0041,0.0034,0.0034,0.0013,0.0009,-0.0004,-0.0007,-0.0011,0.0032,-0.0033,-0.0012,-0.0009,-0.0006,0.0096,0.0108,0.0117,0,0,0,0,0,0.0115,0.0116,0.01,0.0094,0.0064,0.0062,0.0061,0.005,0.0035,0.0045,0.0032,0.001,0.001,-0.0008,-0.0013,0.0031,-0.0013,-0.0009,-0.0006,0.0091,0.0105,0.0117,0,0,0,0,0,0,0.0152,0.0114,0.0096,0.0086,0.0078,0.006,0.0066,0.0051,0.0048,0.0046,0.0019,0.0015,0.0038,0.0012,-0.0006,0.0047,-0.0001,0.0001,0.0075,0.0087,0.0098,0.0149,-0.0034,0,0,0,0,0,0.0153,0.014,0.0112,0.0107,0.0101,0.0081,0.0078,0.0071,0.0061,0.0059,0.0043,0.0035,0.0049,0.0048,0.0047,0.0063,0.0049,0.0091,0.0101,0.011,0.0149,0.0156,0.0172,0.0008,0.0008,0.0008,0,0,0.0166,0.0144,0.0137,0.0114,0.0104,0.0125,0.008,0.0082,0.0114,0.0054,0.0086,0.0067,0.006,0.0094,0.0102,0.0077,0.0146,0.0115,0.0123,0.0157,0.0162,0.0178,0.0192,0.001,0.001,0.001,0,0,0.0202,0.0165,0.0174,0.0174,0.0161,0.0154,0.0154,0.0138,0.0145,0.016,0.0144,0.0159,0.0145,0.0176,0.0184,0.0249,0.0202,0.0233,0.0329,0.0335,0.0349,0.0361,0.0349,0.036,0.0238,0.0238,0.0238,0,0.0222,0.0227,0.0182,0.0204,0.0219,0.0172,0.0212,0.0215,0.0206,0.0228,0.0186,0.0222,0.0204,0.0286,0.0312,0.028,0.0257,0.0281,0.0351,0.0362,0.0373,0.0358,0.0368,0.0244,0.0243,0.0243,0.0242,0,0.0275,0.0285,0.0295,0.0306,0.0318,0.034,0.0339,0.0355,0.0342,0.0346,0.0398,0.0378,0.0406,0.04,0.0377,0.0457,0.0406,0.0362,0.0321,0.0396,0.0375,0.0383,0.0252,0.025,0.0248,0.0247,0,0,0.0312,0.0328,0.0335,0.0364,0.0377,0.0394,0.0453,0.0497,0.0542,0.0533,0.06,0.0628,0.0601,0.0612,0.0582,0.0592,0.0634,0.0513,0.0511,0.0508,0.0629,0.0603,0.0609,0.0586,0.0588,0.059,0.0578,0,0.0374,0.0432,0.0433,0.0512,0.0544,0.0545,0.0607,0.0642,0.0649,0.0694,0.0701,0.0734,0.0686,0.0689,0.0705,0.065,0.0664,0.0641,0.0553,0.0551,0.0525,0.0622,0.0582,0.057,0.0586,0.0587,0.0588,0,0.0434,0.0467,0.0543,0.0615,0.0632,0.0678,0.0762,0.081,0.0864,0.087,0.0912,0.0885,0.0935,0.0852,0.0848,0.0824,0.0756,0.0703,0.0699,0.0655,0.0544,0.05,0.0584,0.0518,0.0601,0.06,0.0599,0,0.0478,0.0551,0.0614,0.0637,0.0706,0.076,0.0804,0.0865,0.0917,0.0974,0.0998,0.1038,0.104,0.0997,0.0892,0.0864,0.0849,0.0788,0.0712,0.0706,0.0653,0.064,0.0677,0.0797,0.0797,0.0797,0.0797,0,0.054,0.0595,0.0637,0.0675,0.077,0.0805,0.0906,0.0952,0.1023,0.1093,0.1086,0.1136,0.107,0.1038,0.0946,0.0867,0.0892,0.0772,0.0725,0.0686,0.0677,0.0598,0.0571,0.0796,0.0797,0.0797,0.0797,0,0.0578,0.0601,0.0679,0.0759,0.0787,0.0854,0.0955,0.1023,0.1078,0.1168,0.1187,0.1214,0.1182,0.1095,0.1008,0.0929,0.081,0.0801,0.0755,0.0705,0.0595,0.0575,0.0577,0.0568,0.0751,0.075,0.075,0,0.0603,0.0638,0.0724,0.077,0.0808,0.09,0.0964,0.1043,0.1109,0.1215,0.1261,0.1263,0.1277,0.1155,0.101,0.0875,0.0795,0.0737,0.0707,0.0633,0.0575,0.0543,0.0534,0.0659,0.0658,0.0657,0.0656,0,0.0652,0.067,0.0727,0.0807,0.0877,0.0967,0.1059,0.1115,0.1211,0.1278,0.1361,0.1383,0.1294,0.1159,0.0973,0.0869,0.0706,0.0717,0.0658,0.0555,0.0508,0.0459,0.0604,0.0649,0.065,0.065,0.0651,0.0651,0.0681,0.0718,0.077,0.0854,0.0927,0.1014,0.1078,0.1168,0.1262,0.1372,0.1411,0.1456,0.1276,0.1041,0.0889,0.0621,0.0672,0.0534,0.0527,0.051,0.0492,0.0631,0.061,0.0611,0.0611,0.0612,0.0612,0,0.0716,0.0747,0.0815,0.0901,0.0966,0.1009,0.1126,0.1184,0.1271,0.1395,0.1467,0.1409,0.1172,0.094,0.0594,0.0442,0.0387,0.037,0.0316,0.0326,0.0454,0.044,0.0362,0.0362,0.0362,0.0362,0.0362,0.0362,0.0734,0.0785,0.0812,0.0906,0.0962,0.1037,0.1095,0.1185,0.1282,0.1405,0.1455,0.1495,0.1378,0.074,0.0358,0.0276,0.0201,0.0166,0.0179,0.0244,0.0258,0.0272,0.0253,0.0137,0.0137,0.0031,0.003,0.0029]}],[{"header":{"parameterUnit":"m.s-1","parameterCategory":2,"la1":30.2991,"la2":30.254,"lo1":-89.0895,"lo2":-89.0444,"dy":0.0017,"dx":0.0017,"nx":28,"ny":28,"refTime":"2025-05-20T09:00:00:Z","depth":"2","parameterNumber":2,"parameterNumberName":"U-component_of_CURRENTS"},"data":[0,0,0,0,0,0,0,0,0,0,0,0,0,0,0,0,0,0,0,0,0,0,0,0,0,0,0,0,0,0,0,0,0,0,0,0,0,0,0,0,0,0,0,0,0,0,0,0,0,0,0,0,0,0,0,0,0,0,0.1808,0.1809,0,0.1848,0.1849,0.1849,0.1859,0.1858,0.1858,0.1858,0.1924,0.1926,0.1928,0,0,0,0,0,0,0,0,0,0,0,0,0,0.1778,0.1778,0.1808,0.1809,0.1809,0.1848,0.1849,0.1849,0.1859,0.1858,0.1858,0.1858,0.1924,0.1926,0.1928,0,0,0,0,0,0,0,0,0,0,0,0,0,0.1801,0.1778,0.1808,0.1819,0.1821,0.1848,0.1849,0.1849,0.1859,0.1858,0.1858,0.1858,0.1923,0.1926,0.1929,0.1953,0,0,0.1938,0.1939,0,0,0,0,0,0,0,0,0.18,0.1802,0.1817,0.1819,0.182,0.1849,0.1862,0.1886,0.1859,0.1844,0.1858,0.1858,0.1902,0.1907,0.1914,0.1956,0.1959,0.1938,0.194,0.1941,0.1942,0,0,0,0,0,0,0,0.1798,0.1801,0.1824,0.1818,0.182,0.1835,0.1838,0.1867,0.1874,0.1845,0.1846,0.1851,0.1903,0.1911,0.1915,0.196,0.1938,0.194,0.1942,0.1943,0.2104,0.2107,0,0,0,0,0,0,0.1793,0.1799,0.1822,0.1825,0.181,0.1836,0.1839,0.1839,0.1874,0.1878,0.1852,0.1852,0.1906,0.1912,0.1918,0.2012,0.1941,0.1944,0.1945,0.2102,0.2105,0.2108,0,0,0,0,0,0,0.1792,0.1794,0.1821,0.1814,0.1818,0.1836,0.1837,0.184,0.185,0.1878,0.1883,0.1858,0.1906,0.1914,0.1954,0.2012,0.1945,0.1948,0.2099,0.2103,0.2106,0.216,0,0,0,0,0,0,0.1791,0.1793,0.1797,0.1813,0.1818,0.1852,0.1838,0.1841,0.1854,0.1854,0.1886,0.1891,0.1906,0.195,0.1957,0.2015,0.195,0.2096,0.2101,0.2105,0.2155,0.2165,0.2173,0,0,0,0,0,0.1789,0.1806,0.1797,0.1801,0.1821,0.1853,0.1858,0.1869,0.1854,0.1873,0.1888,0.189,0.1986,0.1953,0.1962,0.2022,0.2094,0.2099,0.2105,0.2151,0.2163,0.2173,0,0,0,0,0,0,0.1814,0.1809,0.18,0.1818,0.1836,0.1855,0.1872,0.187,0.1895,0.1892,0.1907,0.1915,0.1976,0.199,0.1953,0.2085,0.2047,0.2054,0.2079,0.2091,0.21,0.215,0.1952,0,0,0,0,0,0.1814,0.1812,0.1823,0.1839,0.1845,0.1853,0.1866,0.1872,0.1893,0.1902,0.192,0.1955,0.2008,0.2037,0.2073,0.2135,0.2158,0.2186,0.2195,0.2203,0.2252,0.2303,0.2321,0.2126,0.2126,0.2126,0,0,0.1829,0.1826,0.1826,0.1842,0.185,0.1888,0.186,0.1884,0.1931,0.1907,0.1966,0.1978,0.2028,0.2102,0.2134,0.2121,0.2269,0.221,0.2216,0.2262,0.2311,0.233,0.2347,0.213,0.2129,0.2129,0,0,0.187,0.1851,0.187,0.1886,0.1901,0.1911,0.1917,0.1934,0.1957,0.2006,0.2013,0.2066,0.2118,0.2186,0.2224,0.2312,0.2306,0.2312,0.2412,0.246,0.2476,0.2491,0.253,0.2548,0.2327,0.2327,0.2327,0,0.1892,0.191,0.1887,0.1921,0.1941,0.1924,0.1969,0.2002,0.2033,0.2062,0.2036,0.2144,0.218,0.2305,0.2351,0.2339,0.2348,0.2357,0.2471,0.2486,0.2501,0.2537,0.2557,0.2331,0.233,0.233,0.233,0,0.1954,0.197,0.1986,0.2013,0.2038,0.2068,0.2101,0.2128,0.2133,0.2162,0.2249,0.2292,0.2359,0.2387,0.2408,0.2539,0.2505,0.2461,0.2437,0.2523,0.2556,0.2575,0.2335,0.2334,0.2333,0.2332,0,0,0.199,0.2022,0.2026,0.204,0.2082,0.21,0.2185,0.2248,0.2286,0.2334,0.2401,0.2526,0.2517,0.2566,0.2584,0.266,0.2771,0.2619,0.262,0.2652,0.2867,0.2719,0.2725,0.2724,0.2728,0.2731,0.2843,0,0.2044,0.2102,0.2117,0.2177,0.2202,0.2221,0.2291,0.2346,0.2382,0.2436,0.2513,0.257,0.2594,0.261,0.2701,0.2741,0.2826,0.2745,0.2789,0.2792,0.2642,0.2744,0.2446,0.251,0.2862,0.2865,0.2867,0,0.2095,0.2119,0.2185,0.2223,0.2237,0.2278,0.2343,0.2405,0.2496,0.2522,0.2606,0.2628,0.2777,0.2744,0.2919,0.2853,0.2896,0.2928,0.2931,0.2799,0.268,0.2486,0.2531,0.2898,0.2896,0.2894,0.2891,0,0.2095,0.2159,0.2199,0.2218,0.2277,0.2311,0.2341,0.2424,0.247,0.2565,0.2586,0.273,0.2777,0.2884,0.2962,0.2941,0.3109,0.3066,0.2989,0.2978,0.2744,0.2704,0.3207,0.3207,0.3207,0.3207,0.3206,0,0.213,0.2156,0.219,0.2211,0.2248,0.2293,0.2345,0.2397,0.2475,0.2521,0.2614,0.2669,0.2812,0.2902,0.2986,0.3041,0.3125,0.3052,0.3013,0.275,0.2712,0.3061,0.3043,0.3211,0.321,0.3209,0.3208,0,0.2121,0.2153,0.2185,0.2235,0.2246,0.2264,0.2319,0.2351,0.2428,0.2489,0.2516,0.2645,0.2754,0.2874,0.3028,0.3034,0.3115,0.3108,0.2786,0.2708,0.2957,0.294,0.3066,0.3062,0.3058,0.3056,0.3053,0,0.2124,0.214,0.2176,0.2176,0.2193,0.2221,0.224,0.2318,0.2349,0.2465,0.2485,0.2604,0.2666,0.2821,0.2813,0.2897,0.3052,0.27,0.2629,0.3002,0.2952,0.294,0.2928,0.2344,0.2337,0.233,0.2325,0,0.2116,0.2121,0.2138,0.2137,0.2145,0.2154,0.2181,0.2201,0.2288,0.2338,0.242,0.2479,0.2545,0.2462,0.2508,0.2536,0.2659,0.2569,0.3054,0.2407,0.2325,0.2274,0.2286,0.2267,0.2273,0.2277,0.228,0.2282,0.2088,0.2085,0.2092,0.2082,0.2084,0.2063,0.2048,0.2083,0.2114,0.2156,0.2269,0.2238,0.2225,0.2117,0.2103,0.2091,0.2289,0.2247,0.2266,0.2293,0.217,0.2084,0.1959,0.1963,0.1966,0.1969,0.1972,0,0.204,0.2037,0.203,0.2008,0.1968,0.1992,0.1988,0.1958,0.195,0.1965,0.2006,0.1732,0.1659,0.1703,0.1537,0.1561,0.1555,0.1576,0.1536,0.1592,0.1642,0.1486,0.1095,0.1093,0.1091,0.109,0,0,0.2013,0.1986,0.1978,0.1893,0.1866,0.1794,0.1767,0.1746,0.1712,0.1574,0.1475,0.1579,0.1567,0.1265,0.1246,0.1145,0.1375,0.1113,0.1799,0.1801,0.185,0.1994,0.1812,0,0,0,0,0]},{"header":{"parameterUnit":"m.s-1","parameterCategory":2,"la1":30.2991,"la2":30.254,"lo1":-89.0895,"lo2":-89.0444,"dy":0.0017,"dx":0.0017,"nx":28,"ny":28,"refTime":"2025-05-20T09:00:00:Z","depth":"2","parameterNumber":3,"parameterNumberName":"V-component_of_CURRENTS"},"data":[0,0,0,0,0,0,0,0,0,0,0,0,0,0,0,0,0,0,0,0,0,0,0,0,0,0,0,0,0,0,0,0,0,0,0,0,0,0,0,0,0,0,0,0,0,0,0,0,0,0,0,0,0,0,0,0,0,0,-0.0012,-0.0013,0,-0.0037,-0.0037,-0.0037,-0.0045,-0.0045,-0.0045,-0.0045,-0.0091,-0.0093,-0.0094,0,0,0,0,0,0,0,0,0,0,0,0,0,0.0055,0.0054,-0.0012,-0.0013,-0.0013,-0.0037,-0.0037,-0.0037,-0.0045,-0.0045,-0.0045,-0.0045,-0.0091,-0.0093,-0.0094,0,0,0,0,0,0,0,0,0,0,0,0,0,0.0029,0.0053,-0.0012,-0.0021,-0.0022,-0.0037,-0.0037,-0.0037,-0.0045,-0.0045,-0.0045,-0.0045,-0.0091,-0.0092,-0.0094,-0.0105,0,0,-0.01,-0.0101,0,0,0,0,0,0,0,0,0.003,0.0027,-0.0019,-0.002,-0.0022,-0.0039,-0.003,-0.0062,-0.0045,-0.0035,-0.0045,-0.0045,-0.0077,-0.008,-0.0082,-0.0107,-0.0109,-0.01,-0.0101,-0.0102,-0.0102,0,0,0,0,0,0,0,0.0032,0.0028,-0.0021,-0.002,-0.0021,-0.0014,-0.0018,-0.0036,-0.0055,-0.0035,-0.0036,-0.0041,-0.0078,-0.008,-0.0083,-0.011,-0.01,-0.0102,-0.0103,-0.0103,-0.0093,-0.0091,0,0,0,0,0,0,0.0031,0.0029,-0.002,-0.0021,0.0003,-0.0016,-0.002,-0.0032,-0.0054,-0.0058,-0.0041,-0.0042,-0.0077,-0.0081,-0.0085,-0.0041,-0.0102,-0.0104,-0.0105,-0.0094,-0.0092,-0.0091,0,0,0,0,0,0,0.0032,0.0026,-0.0019,0.0003,-0.0003,-0.0017,-0.0031,-0.0033,-0.0034,-0.0059,-0.0062,-0.0041,-0.0077,-0.0082,-0.0086,-0.0046,-0.0104,-0.0106,-0.0096,-0.0094,-0.0092,0.0009,0,0,0,0,0,0,0.0034,0.0027,0.0022,0.0002,-0.0004,-0.0015,-0.0031,-0.0033,-0.0038,-0.0039,-0.006,-0.0064,-0.0078,-0.0083,-0.0088,-0.0049,-0.0108,-0.0098,-0.0095,-0.0092,0.0004,0.0014,0.0023,0,0,0,0,0,0.0036,0.0036,0.0022,0.0017,-0.0012,-0.0014,-0.0016,-0.0025,-0.0038,-0.0029,-0.0042,-0.0063,-0.0069,-0.0084,-0.0089,-0.005,-0.0099,-0.0096,-0.0093,-0.0001,0.0012,0.0023,0,0,0,0,0,0,0.0069,0.0034,0.0019,0.0009,0.0001,-0.0016,-0.0011,-0.0024,-0.0028,-0.0028,-0.0055,-0.0059,-0.0042,-0.0067,-0.0082,-0.0039,-0.0084,-0.0082,-0.0012,-0.0001,0.0009,0.0056,-0.0109,0,0,0,0,0,0.0071,0.0059,0.0033,0.0028,0.0022,0.0003,0.0,-0.0006,-0.0016,-0.0017,-0.0034,-0.0043,-0.0034,-0.0035,-0.004,-0.0028,-0.0055,-0.0004,0.0005,0.0014,0.0048,0.0052,0.0065,-0.0081,-0.0081,-0.0081,0,0,0.0082,0.0062,0.0055,0.0034,0.0024,0.0042,0.0003,0.0005,0.0033,-0.0023,0.0005,-0.0015,-0.0025,0.0003,0.0009,-0.0013,0.0029,0.0018,0.0025,0.0056,0.0056,0.0071,0.0083,-0.0079,-0.0079,-0.0079,0,0,0.0114,0.008,0.0089,0.0088,0.0077,0.0069,0.007,0.0055,0.0062,0.0074,0.0057,0.0068,0.0052,0.0075,0.0081,0.0137,0.008,0.0123,0.0212,0.0214,0.0227,0.0237,0.0174,0.0178,0.0129,0.0129,0.0129,0,0.0132,0.0137,0.0095,0.0116,0.013,0.0086,0.0122,0.0124,0.0115,0.0137,0.0097,0.0123,0.0103,0.0172,0.0196,0.0165,0.0126,0.0169,0.0228,0.0239,0.0248,0.0181,0.0184,0.0134,0.0134,0.0133,0.0133,0,0.018,0.019,0.0198,0.0209,0.0219,0.0239,0.0237,0.025,0.0238,0.0244,0.0288,0.0262,0.0287,0.0277,0.0255,0.0325,0.0258,0.0238,0.0203,0.0269,0.0192,0.0194,0.0142,0.014,0.0138,0.0137,0,0,0.0214,0.0228,0.0235,0.0264,0.0272,0.0289,0.034,0.038,0.0423,0.0412,0.0474,0.0489,0.0468,0.0475,0.0444,0.0447,0.0456,0.0377,0.0375,0.0319,0.0408,0.03,0.029,0.044,0.0442,0.0444,0.031,0,0.0271,0.0324,0.0324,0.0398,0.0427,0.0427,0.048,0.0514,0.0521,0.0563,0.0563,0.0594,0.0546,0.0549,0.0558,0.0497,0.0474,0.0491,0.0349,0.0344,0.0246,0.0295,0.034,0.0222,0.0311,0.0312,0.0312,0,0.0326,0.0356,0.0427,0.0494,0.051,0.0554,0.063,0.0674,0.0724,0.073,0.0769,0.0743,0.0781,0.0702,0.0657,0.0665,0.0556,0.0483,0.0475,0.0354,0.0243,0.0179,0.0221,0.0314,0.0314,0.0314,0.0314,0,0.0369,0.0436,0.0495,0.0517,0.058,0.0632,0.0674,0.073,0.0781,0.0836,0.0857,0.0887,0.0879,0.0814,0.0688,0.0666,0.0595,0.0537,0.0325,0.0312,0.0317,0.0302,0.0484,0.0484,0.0485,0.0485,0.0485,0,0.0427,0.048,0.052,0.0558,0.065,0.0682,0.078,0.0822,0.089,0.0959,0.0947,0.0981,0.0906,0.0853,0.0733,0.0551,0.063,0.0357,0.0294,0.0344,0.0333,0.04,0.0392,0.048,0.0481,0.0482,0.0483,0,0.0463,0.0485,0.0562,0.0639,0.0668,0.0736,0.0838,0.0902,0.0952,0.1039,0.1059,0.1054,0.0972,0.0865,0.0726,0.0576,0.0432,0.033,0.0361,0.0304,0.0116,0.0115,0.007,0.0066,0.0062,0.0059,0.0056,0,0.0488,0.0521,0.061,0.0657,0.0697,0.0789,0.085,0.0928,0.099,0.1079,0.1117,0.1067,0.0983,0.0738,0.0568,0.0333,0.0331,0.0147,0.0119,0.0143,0.0085,0.009,0.0094,0.0138,0.0136,0.0135,0.0134,0,0.0534,0.0554,0.0606,0.0691,0.0764,0.0855,0.0946,0.0998,0.1089,0.1126,0.114,0.107,0.0867,0.0641,0.0342,0.0209,0.0202,0.0098,0.0175,0.0227,0.0194,0.0141,0.0145,0.0121,0.0122,0.0123,0.0124,0.0124,0.0557,0.0593,0.0642,0.0728,0.0807,0.0899,0.0957,0.1027,0.109,0.1141,0.1118,0.1,0.0793,0.0379,0.0207,0.0062,0.0033,-0.0074,-0.0063,-0.0052,-0.0028,-0.0066,-0.0188,-0.0188,-0.0189,-0.0189,-0.0189,0,0.0577,0.0617,0.0682,0.077,0.0838,0.0898,0.1002,0.1019,0.1051,0.1092,0.1054,0.0783,0.0552,0.0369,0.012,-0.0111,-0.0039,-0.0162,-0.0018,-0.0007,0.0003,0.0037,-0.011,-0.011,-0.011,-0.011,0,0,0.059,0.0625,0.0649,0.0756,0.0833,0.0902,0.0955,0.0956,0.0972,0.0907,0.0863,0.0831,0.0555,0.0376,0.0161,0.0028,0.0062,0.0014,-0.0034,0.0171,0.0185,0.0061,0.0124,0,0,0,0,0]}],[{"header":{"parameterUnit":"m.s-1","parameterCategory":2,"la1":30.2991,"la2":30.254,"lo1":-89.0895,"lo2":-89.0444,"dy":0.0017,"dx":0.0017,"nx":28,"ny":28,"refTime":"2025-05-20T09:00:00:Z","depth":"4","parameterNumber":2,"parameterNumberName":"U-component_of_CURRENTS"},"data":[0,0,0,0,0,0,0,0,0,0,0,0,0,0,0,0,0,0,0,0,0,0,0,0,0,0,0,0,0,0,0,0,0,0,0,0,0,0,0,0,0,0,0,0,0,0,0,0,0,0,0,0,0,0,0,0,0,0,0.0764,0.0764,0,0.0803,0.0804,0.0805,0.0854,0.0855,0.0855,0.0856,0.0887,0.0887,0.0888,0,0,0,0,0,0,0,0,0,0,0,0,0,0.0734,0.0734,0.0763,0.0764,0.0764,0.0803,0.0804,0.0805,0.0854,0.0855,0.0855,0.0856,0.0887,0.0887,0.0888,0,0,0,0,0,0,0,0,0,0,0,0,0,0.0761,0.0734,0.0763,0.079,0.0793,0.0803,0.0804,0.0805,0.0854,0.0855,0.0856,0.0856,0.0887,0.0887,0.0888,0.0878,0,0,0.089,0.089,0,0,0,0,0,0,0,0,0.0759,0.0762,0.0786,0.0789,0.0791,0.0821,0.0805,0.0828,0.0854,0.0835,0.0856,0.0856,0.0861,0.0864,0.0876,0.088,0.0881,0.089,0.089,0.0891,0.0891,0,0,0,0,0,0,0,0.0757,0.0761,0.0783,0.0786,0.0789,0.0801,0.0806,0.081,0.0847,0.0837,0.0839,0.0838,0.0863,0.0875,0.0876,0.0882,0.089,0.089,0.0891,0.0891,0.1084,0.1088,0,0,0,0,0,0,0.0744,0.0759,0.0782,0.0784,0.0772,0.0801,0.0807,0.0814,0.0847,0.0852,0.0837,0.084,0.0873,0.0876,0.0878,0.1075,0.0891,0.0891,0.0891,0.1079,0.1085,0.109,0,0,0,0,0,0,0.0743,0.0746,0.078,0.0769,0.0774,0.08,0.0808,0.0814,0.0887,0.0846,0.0852,0.0909,0.0874,0.0877,0.0943,0.1068,0.0891,0.0892,0.1074,0.1081,0.1087,0.1336,0,0,0,0,0,0,0.0742,0.0746,0.0786,0.0768,0.0774,0.0821,0.0807,0.0815,0.0879,0.0885,0.0909,0.0909,0.0875,0.0943,0.0944,0.1066,0.0892,0.1068,0.1077,0.1085,0.1322,0.1351,0.1376,0,0,0,0,0,0.0741,0.0772,0.0788,0.0792,0.0815,0.0823,0.0829,0.0851,0.0882,0.0921,0.0952,0.0912,0.1001,0.0946,0.0947,0.1072,0.1063,0.1074,0.1085,0.131,0.1345,0.1375,0,0,0,0,0,0,0.078,0.0779,0.0796,0.0828,0.0845,0.0831,0.0882,0.0894,0.0951,0.099,0.0955,0.0957,0.1072,0.1029,0.0969,0.1154,0.1033,0.1044,0.1205,0.1237,0.1264,0.1164,0.0893,0,0,0,0,0,0.0806,0.0842,0.0831,0.0872,0.089,0.0906,0.093,0.0948,0.0972,0.1003,0.1028,0.1063,0.1106,0.1136,0.1157,0.1243,0.1125,0.1328,0.1356,0.1379,0.13,0.1256,0.1269,0.1125,0.1125,0.1125,0,0,0.0828,0.0842,0.0861,0.0886,0.0916,0.0936,0.0927,0.099,0.1028,0.0995,0.1108,0.116,0.1149,0.1261,0.1309,0.1247,0.1373,0.1392,0.1412,0.1317,0.1268,0.1281,0.1292,0.1132,0.1131,0.113,0,0,0.086,0.0918,0.0942,0.0967,0.1017,0.1023,0.1055,0.1097,0.1152,0.1252,0.1256,0.1352,0.1436,0.1439,0.145,0.1623,0.1518,0.1697,0.1753,0.1718,0.1727,0.1733,0.1652,0.1648,0.171,0.1711,0.1711,0,0.0891,0.0908,0.0955,0.0984,0.1,0.1067,0.1081,0.1148,0.1218,0.1247,0.1324,0.1454,0.1497,0.1547,0.1655,0.168,0.1626,0.1641,0.1747,0.1751,0.1752,0.1666,0.1659,0.1724,0.1723,0.1721,0.172,0,0.0896,0.0947,0.0977,0.1026,0.1065,0.1105,0.1166,0.1255,0.1363,0.1402,0.1538,0.162,0.1662,0.177,0.1784,0.1853,0.1802,0.179,0.1654,0.1781,0.1685,0.1673,0.1743,0.1738,0.1735,0.1731,0,0,0.083,0.0949,0.096,0.0998,0.1087,0.1109,0.1209,0.1259,0.1313,0.1482,0.1527,0.1718,0.1775,0.1785,0.1851,0.1872,0.1931,0.1875,0.1868,0.177,0.1831,0.1754,0.1732,0.1967,0.1965,0.1964,0.1774,0,0.0805,0.086,0.0919,0.0987,0.1014,0.1108,0.1179,0.1264,0.1375,0.1462,0.1576,0.1678,0.1777,0.1863,0.1901,0.1919,0.1904,0.1979,0.1734,0.1724,0.1622,0.1716,0.1959,0.1764,0.1761,0.1758,0.1757,0,0.0739,0.0796,0.0847,0.0959,0.098,0.1046,0.1144,0.1221,0.1341,0.1436,0.1537,0.162,0.1709,0.1791,0.1792,0.1853,0.1839,0.1842,0.1834,0.1632,0.1623,0.1597,0.1732,0.1734,0.1736,0.1738,0.1739,0,0.0619,0.0726,0.0773,0.081,0.0952,0.1013,0.11,0.1221,0.1286,0.1418,0.1484,0.1561,0.1647,0.164,0.1697,0.176,0.1646,0.1707,0.1576,0.1568,0.1576,0.157,0.1623,0.1623,0.1624,0.1624,0.1625,0,0.0527,0.0568,0.0747,0.0777,0.0849,0.0978,0.1062,0.1159,0.1282,0.1327,0.1478,0.1488,0.1631,0.1608,0.1622,0.1547,0.1563,0.154,0.1511,0.1698,0.1708,0.1569,0.1566,0.1617,0.1619,0.162,0.1621,0,0.04,0.0506,0.0574,0.0745,0.0804,0.0875,0.1052,0.1105,0.1248,0.1304,0.1352,0.1448,0.1439,0.1486,0.1458,0.1448,0.1374,0.1317,0.1458,0.1445,0.1334,0.1346,0.1159,0.1155,0.1151,0.1148,0.1145,0,0.0349,0.0372,0.0542,0.0604,0.0705,0.0833,0.0909,0.1076,0.1118,0.1227,0.1217,0.1267,0.1313,0.1165,0.1239,0.1185,0.1198,0.1138,0.1301,0.1294,0.1284,0.1303,0.1319,0.1139,0.1139,0.1138,0.1137,0,0.025,0.0322,0.039,0.051,0.0618,0.0698,0.0824,0.0819,0.0973,0.111,0.1068,0.1084,0.1052,0.1061,0.104,0.1002,0.1187,0.11,0.1111,0.1264,0.1268,0.1266,0.1287,0.1124,0.1126,0.1127,0.1128,0,0.0192,0.0208,0.0312,0.0412,0.0521,0.055,0.0614,0.0674,0.0734,0.0883,0.0821,0.0883,0.0974,0.0951,0.0889,0.0902,0.0942,0.0952,0.0971,0.0986,0.1038,0.1025,0.0742,0,0,0,0,0,0.0147,0.0158,0.0217,0.0313,0.0407,0.0481,0.0555,0.0613,0.0724,0.0675,0.0772,0.0739,0.0754,0.0751,0.074,0.0821,0.0928,0.0805,0.0944,0.1052,0.1067,0.1158,0,0,0,0,0,0,0.0116,0.0161,0.0175,0.0217,0.0273,0.0355,0.039,0.0455,0.0433,0.0559,0.0547,0.0717,0.0709,0.0768,0.0736,0.0751,0.0826,0.0876,0.0875,0.1044,0.1057,0.1069,0.1168,0,0,0,0,0]},{"header":{"parameterUnit":"m.s-1","parameterCategory":2,"la1":30.2991,"la2":30.254,"lo1":-89.0895,"lo2":-89.0444,"dy":0.0017,"dx":0.0017,"nx":28,"ny":28,"refTime":"2025-05-20T09:00:00:Z","depth":"4","parameterNumber":3,"parameterNumberName":"V-component_of_CURRENTS"},"data":[0,0,0,0,0,0,0,0,0,0,0,0,0,0,0,0,0,0,0,0,0,0,0,0,0,0,0,0,0,0,0,0,0,0,0,0,0,0,0,0,0,0,0,0,0,0,0,0,0,0,0,0,0,0,0,0,0,0,0.0012,0.0012,0,-0.0073,-0.0075,-0.0076,-0.0142,-0.0142,-0.0142,-0.0142,-0.0344,-0.035,-0.0355,0,0,0,0,0,0,0,0,0,0,0,0,0,-0.0013,-0.0012,0.0013,0.0012,0.0012,-0.0073,-0.0075,-0.0077,-0.0142,-0.0142,-0.0142,-0.0143,-0.0343,-0.0349,-0.0355,0,0,0,0,0,0,0,0,0,0,0,0,0,-0.0046,-0.0011,0.0013,-0.0027,-0.0031,-0.0073,-0.0075,-0.0077,-0.0142,-0.0142,-0.0142,-0.0143,-0.0341,-0.0348,-0.0356,-0.0404,0,0,-0.0381,-0.0384,0,0,0,0,0,0,0,0,-0.0044,-0.0046,-0.0021,-0.0024,-0.0029,-0.0092,-0.0158,-0.019,-0.0142,-0.0107,-0.0142,-0.0143,-0.0267,-0.0281,-0.0304,-0.0413,-0.0422,-0.0381,-0.0386,-0.039,-0.0392,0,0,0,0,0,0,0,-0.0041,-0.0043,-0.0028,-0.0021,-0.0026,-0.0085,-0.009,-0.0165,-0.0192,-0.011,-0.0113,-0.0113,-0.0271,-0.0296,-0.0309,-0.0425,-0.0381,-0.0388,-0.0393,-0.0396,-0.0671,-0.0674,0,0,0,0,0,0,-0.0011,-0.004,-0.0025,-0.003,-0.003,-0.0084,-0.0089,-0.0077,-0.0189,-0.0203,-0.0113,-0.0115,-0.0282,-0.03,-0.0317,-0.0403,-0.039,-0.0397,-0.0402,-0.0669,-0.0672,-0.0675,0,0,0,0,0,0,-0.0011,-0.0008,-0.0021,-0.0033,-0.0038,-0.0082,-0.0068,-0.0078,-0.0127,-0.0189,-0.0207,-0.0152,-0.0283,-0.0305,-0.041,-0.041,-0.0401,-0.0408,-0.0666,-0.067,-0.0673,-0.0561,0,0,0,0,0,0,-0.0011,-0.0008,-0.0024,-0.003,-0.0036,-0.0078,-0.0068,-0.0079,-0.0121,-0.0127,-0.0229,-0.0246,-0.0285,-0.0398,-0.0418,-0.0421,-0.0414,-0.0663,-0.0668,-0.0672,-0.0561,-0.056,-0.0559,0,0,0,0,0,-0.0012,-0.0041,-0.0024,-0.0024,-0.0045,-0.0079,-0.0091,-0.0126,-0.0123,-0.0167,-0.0224,-0.0244,-0.0442,-0.0406,-0.0429,-0.0434,-0.066,-0.0666,-0.0672,-0.0562,-0.056,-0.0559,0,0,0,0,0,0,-0.0097,-0.0049,-0.0032,-0.0054,-0.0071,-0.0089,-0.0142,-0.0139,-0.0216,-0.0231,-0.0278,-0.0301,-0.0385,-0.045,-0.0409,-0.0537,-0.0555,-0.0565,-0.0464,-0.0463,-0.0462,-0.0497,-0.0421,0,0,0,0,0,-0.0106,-0.0104,-0.0078,-0.011,-0.0113,-0.0124,-0.0152,-0.0161,-0.0206,-0.024,-0.0298,-0.0372,-0.0425,-0.0475,-0.0547,-0.0627,-0.0656,-0.0652,-0.0651,-0.0649,-0.07,-0.0732,-0.0736,-0.0693,-0.0693,-0.0693,0,0,-0.0153,-0.0128,-0.0133,-0.0126,-0.0145,-0.0166,-0.0146,-0.0192,-0.0224,-0.0253,-0.0348,-0.0374,-0.0448,-0.0519,-0.0564,-0.0574,-0.0665,-0.0656,-0.0653,-0.0706,-0.0738,-0.0741,-0.0744,-0.0697,-0.0696,-0.0696,0,0,-0.0226,-0.0216,-0.0223,-0.0232,-0.0237,-0.0238,-0.0247,-0.0265,-0.0296,-0.0355,-0.0376,-0.0417,-0.0518,-0.056,-0.059,-0.0647,-0.0653,-0.0661,-0.0686,-0.0712,-0.0715,-0.0718,-0.0687,-0.0688,-0.0664,-0.0664,-0.0664,0,-0.0288,-0.0262,-0.0249,-0.0259,-0.0263,-0.0265,-0.0278,-0.0324,-0.0378,-0.0398,-0.0389,-0.0499,-0.0539,-0.0613,-0.0614,-0.064,-0.064,-0.0659,-0.0704,-0.0708,-0.0713,-0.0681,-0.0684,-0.0659,-0.066,-0.0661,-0.0661,0,-0.033,-0.033,-0.0352,-0.0334,-0.0361,-0.038,-0.0395,-0.0437,-0.0437,-0.0454,-0.0521,-0.0563,-0.0627,-0.0621,-0.0626,-0.0685,-0.0662,-0.0678,-0.0684,-0.0709,-0.0675,-0.0679,-0.0653,-0.0654,-0.0656,-0.0657,0,0,-0.0373,-0.0369,-0.0375,-0.0342,-0.0379,-0.0376,-0.0459,-0.0483,-0.0489,-0.0562,-0.0573,-0.0654,-0.0659,-0.0702,-0.0709,-0.0729,-0.0701,-0.0713,-0.0716,-0.0643,-0.0712,-0.0607,-0.0602,-0.0703,-0.0705,-0.0707,-0.0645,0,-0.039,-0.0372,-0.0397,-0.0402,-0.0363,-0.0408,-0.0461,-0.0506,-0.0525,-0.0553,-0.0621,-0.0653,-0.0701,-0.0682,-0.0726,-0.0705,-0.0723,-0.0715,-0.0741,-0.0742,-0.0612,-0.0609,-0.0714,-0.0649,-0.065,-0.0651,-0.0651,0,-0.0366,-0.0342,-0.0335,-0.0315,-0.0314,-0.0367,-0.0375,-0.0428,-0.0511,-0.0525,-0.0612,-0.0646,-0.0727,-0.0726,-0.0795,-0.0778,-0.0768,-0.0751,-0.0748,-0.0715,-0.0649,-0.0647,-0.066,-0.0659,-0.0659,-0.0658,-0.0658,0,-0.0245,-0.0273,-0.0242,-0.0246,-0.0269,-0.0311,-0.0356,-0.0427,-0.0432,-0.0531,-0.0503,-0.0647,-0.0649,-0.0732,-0.0709,-0.0756,-0.0707,-0.0768,-0.068,-0.0669,-0.0827,-0.0826,-0.0831,-0.0831,-0.0831,-0.0831,-0.0832,0,-0.0155,-0.0124,-0.0197,-0.0161,-0.0156,-0.0228,-0.0241,-0.0302,-0.0364,-0.0335,-0.05,-0.0469,-0.0645,-0.0627,-0.0679,-0.0655,-0.07,-0.0699,-0.0664,-0.0772,-0.0767,-0.0824,-0.0824,-0.0829,-0.083,-0.083,-0.083,0,0.0004,-0.0036,0.0012,-0.0048,-0.0084,-0.0085,-0.0172,-0.0146,-0.0246,-0.0207,-0.0235,-0.0325,-0.0351,-0.0444,-0.0495,-0.0556,-0.0569,-0.0539,-0.0571,-0.0537,-0.0536,-0.0532,-0.0527,-0.0523,-0.052,-0.0517,-0.0515,0,0.0094,0.013,0.0098,0.0103,0.0053,0.0016,0.0013,-0.0086,-0.0047,-0.008,-0.0013,-0.0067,-0.0127,-0.0137,-0.0267,-0.0378,-0.0401,-0.0405,-0.0599,-0.0546,-0.0514,-0.0514,-0.0515,-0.0509,-0.0509,-0.0508,-0.0507,0,0.0236,0.0204,0.0225,0.0241,0.0227,0.0245,0.0218,0.0234,0.0174,0.0156,0.0165,0.0069,0.0069,-0.0081,-0.0117,-0.0206,-0.0428,-0.0374,-0.0387,-0.057,-0.0525,-0.0496,-0.05,-0.0496,-0.0497,-0.0498,-0.0499,0,0.0294,0.0325,0.0321,0.0331,0.036,0.0385,0.0365,0.0371,0.0363,0.0305,0.0351,0.0229,0.0165,0.0025,0.0005,-0.0088,-0.0202,-0.0285,-0.0305,-0.0318,-0.0298,-0.0213,-0.0064,0,0,0,0,0,0.0332,0.035,0.0394,0.0389,0.0447,0.0453,0.0478,0.0461,0.0431,0.0467,0.0371,0.0354,0.0194,0.013,0.0042,0.0019,-0.0213,-0.0085,-0.0317,-0.0434,-0.0447,-0.0452,0,0,0,0,0,0,0.0336,0.0383,0.04,0.0434,0.0452,0.0505,0.0517,0.051,0.0501,0.046,0.0381,0.0347,0.0202,0.0246,0.0045,0.0019,-0.0139,-0.015,-0.0151,-0.0426,-0.0438,-0.0448,-0.0459,0,0,0,0,0]}]]